Wetbulb
33.50 28.90 26.23 28.63 30.62 30.60 29.14 26.81 25.33 28.46 32.76 30.27 29.07 29.51 32.48 33.98 34.40 33.78 35.87 36.12 39.91 43.37 49.79 56.22 59.55 60.35 60.68 61.26 61.60 61.93 61.60 62.76 62.84 61.46 60.14 58.67 57.05 57.29 57.58 59.62 60.70 59.98 59.31 57.44
28.83 24.50 30.27 32.66 32.58 30.44 28.65 25.81 25.04 28.89 32.08 30.27 28.84 28.22 31.91 33.63 34.24 34.93 35.32 36.27 38.81 42.24 46.48 54.37 56.03 57.32 59.78 60.20 60.86 61.57 61.60 61.82 62.38 61.12 60.84 59.62 58.00 57.67 58.51 59.45 59.70 59.45 57.12 55.64
26.06 28.64 32.95 30.73 29.12 27.41 27.24 25.26 25.11 25.67 30.17 31.88 28.85 25.25 28.25 32.58 34.49 36.38 37.21 38.12 39.05 39.78 44.91 49.67 55.40 57.39 58.38 59.47 59.77 61.36 61.70 61.87 61.80 60.11 59.26 58.51 58.35 58.06 57.57 58.23 57.14 57.02 55.90 54.25
27.79 32.44 31.02 29.11 27.22 28.06 22.66 29.86 29.38 27.59 24.89 19.87 29.30 17.50 25.34 29.49 31.07 33.81 35.90 37.31 38.02 39.10 43.57 49.10 51.83 56.57 58.92 59.17 60.03 60.69 61.63 61.67 61.59 60.53 58.75 57.20 57.27 56.09 56.91 56.65 54.03 54.94 53.68 52.07
25.66 28.20 27.53 25.81 27.34 29.76 24.77 30.69 28.60 27.84 25.20 24.82 24.60 20.37 21.79 28.95 27.83 31.25 34.24 36.23 38.03 39.13 41.28 48.21 51.42 55.13 58.57 59.34 59.54 60.51 61.40 61.36 61.19 60.29 59.88 58.59 57.70 57.78 56.07 54.23 51.76 49.55 48.64 49.38
29.32 33.67 30.51 29.46 30.95 31.53 31.84 29.68 28.86 29.05 26.61 17.48 22.36 22.05 20.64 23.90 27.76 30.95 34.44 36.50 38.73 39.26 40.55 44.64 50.77 54.07 58.28 58.87 59.61 59.88 60.32 60.83 61.13 60.64 60.08 58.63 58.09 57.28 54.24 53.94 51.32 48.21 45.83 45.32
23.63 26.19 31.95 32.25 26.88 30.43 29.32 24.77 17.73 14.68 16.18 9.50 24.53 21.06 22.88 28.94 31.87 32.94 33.57 35.46 38.17 39.55 40.12 42.84 45.66 51.08 56.57 57.69 58.98 59.26 59.16 59.67 60.73 60.62 60.04 58.72 58.24 56.65 55.11 53.71 52.07 48.34 44.46 42.55
12.15 12.95 26.24 31.82 26.96 24.90 26.76 24.04 14.46 4.92 6.27 10.68 23.83 13.69 23.61 32.50 34.64 35.77 36.58 36.67 37.89 39.02 40.72 42.69 45.49 51.26 56.08 57.05 57.59 58.43 58.50 58.55 59.43 60.21 60.07 58.57 57.90 56.55 55.81 54.41 52.72 50.31 48.59 47.36
15.59 16.47 29.25 29.14 31.26 32.00 28.39 22.73 29.73 20.18 16.69 17.66 21.45 26.37 31.91 34.53 34.07 34.50 34.78 36.17 36.14 38.81 40.20 42.24 45.57 53.15 56.05 56.73 57.32 58.00 57.92 58.12 58.36 59.27 59.66 59.38 57.10 56.43 55.58 53.63 52.64 50.40 48.92 45.45
21.41 15.19 25.39 29.01 33.41 33.08 29.92 31.82 23.86 22.63 12.21 11.78 19.41 20.71 24.58 29.45 34.37 33.63 33.72 34.92 36.64 38.51 40.69 42.86 46.21 51.56 56.15 56.65 56.94 57.57 57.98 57.59 58.08 59.36 59.74 59.28 56.86 56.55 55.44 52.47 50.37 48.30 44.98 41.64
25.57 21.61 21.21 26.33 24.27 25.10 25.55 23.01 25.20 26.10 24.70 15.89 14.89 19.83 30.83 30.78 35.73 38.23 40.08 38.16 38.33 38.92 41.12 45.18 47.52 50.53 54.63 55.20 54.29 53.94 54.64 55.61 56.53 58.55 59.17 57.70 56.44 55.93 53.08 51.45 49.53 45.64 41.04 38.81
26.89 23.26 16.99 19.95 27.43 31.20 28.52 24.15 23.17 17.01 20.15 22.84 21.10 21.11 31.56 31.84 36.99 40.45 40.67 42.17 43.47 44.10 44.11 45.72 47.44 48.09 46.52 46.95 46.32 44.57 44.03 44.48 47.31 52.41 51.23 47.56 45.98 46.72 46.66 45.21 41.70 39.79 36.89 36.58
27.48 21.22 13.63 16.20 25.08 28.34 22.71 24.39 21.91 22.86 23.71 22.47 19.08 21.07 31.01 32.10 36.73 37.95 38.08 38.65 39.77 39.94 40.10 40.55 40.73 40.65 40.83 41.28 41.92 41.49 40.81 40.38 40.31 40.41 40.25 39.75 38.70 38.01 37.37 37.30 37.42 37.29 37.19 37.55
29.65 23.61 19.35 13.66 17.83 22.72 18.03 20.63 20.82 20.06 14.95 18.20 19.26 19.72 22.62 27.06 32.64 34.77 35.60 36.74 37.75 37.66 37.92 38.13 38.06 38.55 38.77 39.38 40.10 40.09 39.32 39.64 39.75 39.49 38.83 38.34 38.46 38.22 38.24 38.24 37.85 37.80 38.31 38.27
26.78 19.91 22.39 22.76 23.72 23.70 19.09 18.72 19.10 15.73 16.89 16.18 20.13 18.04 19.75 22.94 31.15 33.33 35.00 35.38 34.84 35.18 36.40 37.30 37.69 37.97 37.90 38.35 38.46 38.04 37.92 37.96 38.10 37.26 36.71 36.43 36.85 37.00 36.81 36.10 35.69 35.44 35.20 35.20
28.08 19.27 22.88 20.70 25.61 22.92 17.96 18.62 20.00 17.32 16.57 17.72 20.75 18.07 22.98 22.59 27.87 29.62 31.43 32.13 31.78 31.63 33.12 34.08 35.33 35.87 36.14 36.48 36.43 36.57 36.40 36.39 36.77 35.64 35.12 35.41 34.90 34.34 34.00 33.60 32.78 32.49 32.04 31.94
24.22 22.47 19.68 16.51 23.69 24.41 13.76 16.42 19.12 16.58 17.40 17.15 13.00 20.08 22.44 18.03 18.60 19.62 23.67 27.24 28.29 29.12 29.77 30.28 31.42 32.64 33.33 33.34 34.27 33.97 34.50 35.02 34.31 33.77 33.66 33.56 33.38 32.44 32.06 32.34 32.01 31.65 31.49 31.54
22.74 23.32 21.22 15.94 18.57 9.17 19.76 23.50 22.71 20.52 17.52 17.87 17.43 18.53 24.69 21.02 19.59 18.53 20.72 21.96 21.10 24.28 25.63 26.69 28.12 28.48 30.68 32.14 31.88 31.10 30.91 30.65 30.32 30.36 31.22 32.22 32.07 31.45 31.58 31.27 30.92 30.97 30.93 30.32
30.05 26.22 17.67 17.89 16.90 21.09 20.64 21.00 18.52 18.16 16.56 19.55 16.30 17.04 19.43 28.69 25.53 17.48 18.45 20.11 19.19 19.43 21.15 22.96 25.13 25.74 26.09 27.17 28.51 27.35 26.59 26.49 26.13 25.88 26.83 28.60 29.20 28.56 28.60 28.45 28.70 29.31 29.11 28.86
28.63 27.12 20.14 14.78 11.34 9.43 18.95 21.81 24.31 25.09 15.16 20.52 18.63 16.52 16.61 20.96 13.99 13.19 17.91 18.63 19.09 19.36 19.26 19.04 20.63 22.21 22.75 24.00 25.17 23.90 23.21 23.24 22.97 23.82 24.79 26.13 26.84 26.40 25.69 26.48 26.96 27.50 27.66 27.56
20.32 17.50 12.36 12.44 15.66 19.05 21.99 22.36 24.44 11.06 12.80 20.61 19.97 18.00 16.62 12.58 14.60 17.16 18.62 17.63 18.37 18.47 19.02 19.08 18.04 16.67 18.21 22.09 22.52 20.72 20.61 19.87 21.73 22.64 22.59 22.72 23.50 23.18 22.87 23.06 23.77 23.00 22.28 22.21
20.56 16.11 14.22 10.33 13.79 12.92 23.64 21.27 13.28 18.30 22.52 21.17 20.80 19.61 16.98 17.11 17.27 16.94 16.63 16.13 16.53 15.80 16.35 17.33 15.30 14.29 15.07 17.40 18.97 17.56 16.93 19.40 19.77 19.62 19.49 20.02 20.41 21.10 21.36 20.38 19.95 19.42 18.75 17.72
19.01 22.44 18.54 19.40 19.47 24.69 23.49 20.48 22.75 22.67 20.16 20.66 20.97 21.24 20.04 18.25 16.90 16.74 15.55 15.30 15.10 14.92 14.72 15.05 14.12 12.92 12.61 13.73 15.02 14.08 16.05 17.34 17.22 16.59 15.73 16.53 17.69 19.29 19.83 18.46 17.51 16.44 16.42 15.33
25.21 26.23 24.24 24.39 25.11 21.35 20.58 23.59 23.12 23.27 20.61 20.53 21.27 20.00 19.34 16.88 16.78 15.55 15.28 14.06 13.06 12.98 12.03 12.81 11.62 9.97 9.18 10.62 11.29 12.06 13.76 15.78 14.28 13.50 13.92 14.24 13.84 14.46 16.42 17.99 17.84 16.49 15.35 14.40
24.04 24.57 24.20 25.02 26.17 23.05 21.30 21.05 21.93 21.55 21.33 19.90 19.11 18.96 17.85 16.45 14.22 13.82 13.04 12.13 11.45 10.88 10.34 9.97 8.86 7.67 7.09 8.16 8.10 9.16 11.04 12.86 12.37 11.43 11.59 11.54 11.71 11.32 11.37 13.03 16.10 15.52 16.58 17.09
23.76 24.04 24.91 22.00 24.56 23.33 20.64 20.06 21.20 19.17 18.49 19.23 18.37 15.85 16.32 16.27 13.59 12.38 10.22 9.77 9.10 7.87 8.09 6.99 6.37 5.84 5.56 6.00 5.73 6.59 7.77 9.24 9.93 9.26 8.95 8.92 8.97 8.71 8.90 8.13 7.69 15.80 17.72 17.97
MSLP
1015.11 1015.24 1014.65 1014.31 1014.52 1014.07 1013.71 1013.38 1012.58 1011.41 1010.66 1010.56 1009.65 1008.98 1008.57 1008.02 1007.37 1006.90 1006.04 1005.68 1004.88 1004.53 1005.30 1005.59 1005.69 1005.98 1006.35 1006.74 1007.13 1007.40 1007.93 1008.69 1009.42 1009.91 1010.18 1010.93 1011.73 1012.40 1012.90 1013.08 1013.23 1013.77 1014.39 1014.96
1015.21 1014.07 1013.32 1013.62 1013.49 1013.37 1013.12 1012.65 1012.05 1010.59 1010.51 1010.68 1009.49 1008.64 1008.13 1007.65 1007.04 1006.54 1005.88 1005.44 1004.99 1004.30 1004.50 1005.10 1005.55 1005.42 1006.29 1006.46 1006.76 1007.28 1007.57 1008.29 1008.96 1009.45 1010.02 1010.62 1011.38 1012.07 1012.60 1012.93 1013.07 1013.55 1014.12 1014.63
1015.10 1012.88 1013.30 1013.17 1013.09 1012.97 1012.54 1012.17 1011.60 1010.92 1010.68 1009.96 1009.36 1008.56 1007.69 1006.76 1006.22 1005.62 1005.06 1004.46 1004.82 1004.50 1004.06 1004.07 1004.34 1004.52 1005.34 1005.81 1006.30 1006.73 1007.06 1007.60 1008.42 1009.08 1009.80 1010.64 1011.32 1012.17 1012.63 1012.93 1013.23 1013.56 1013.80 1014.26
1013.97 1012.82 1012.67 1012.71 1012.60 1012.69 1011.84 1011.38 1011.27 1010.98 1011.10 1009.63 1009.20 1007.90 1006.91 1006.26 1005.73 1005.02 1004.44 1003.91 1003.00 1003.38 1003.56 1003.30 1003.15 1003.39 1004.17 1005.38 1005.71 1006.35 1006.74 1007.14 1007.83 1008.72 1009.65 1010.15 1010.68 1011.41 1011.87 1012.41 1012.97 1013.35 1013.62 1014.22
1013.30 1012.83 1012.62 1012.24 1012.06 1012.24 1011.23 1010.99 1010.73 1010.49 1010.22 1009.82 1009.06 1008.39 1006.06 1005.82 1004.96 1004.10 1003.58 1003.02 1002.68 1002.68 1002.54 1002.65 1002.69 1003.08 1003.71 1004.38 1005.00 1005.63 1006.45 1007.02 1007.70 1008.28 1009.01 1009.83 1010.61 1011.29 1011.78 1012.43 1013.20 1013.59 1014.06 1014.41
1013.83 1012.76 1012.49 1011.80 1011.77 1011.73 1010.87 1010.60 1010.08 1009.88 1009.82 1008.67 1007.75 1008.17 1005.14 1004.21 1003.04 1002.83 1002.49 1002.10 1001.68 1002.09 1002.30 1002.48 1002.43 1002.42 1003.18 1003.87 1004.21 1005.07 1005.95 1006.66 1007.34 1007.94 1008.59 1009.19 1009.93 1010.74 1011.58 1012.19 1012.85 1013.61 1013.95 1014.40
1014.12 1012.84 1012.18 1012.41 1011.91 1010.67 1010.77 1010.56 1009.80 1009.79 1009.57 1008.14 1006.67 1006.50 1003.60 1002.34 1001.93 1001.54 1001.16 1001.19 1000.98 1000.78 1001.30 1001.74 1001.96 1001.98 1002.86 1003.53 1004.07 1004.69 1005.50 1006.30 1006.96 1007.49 1008.06 1008.64 1009.35 1010.07 1010.74 1011.58 1012.21 1013.02 1013.71 1014.26
1016.13 1013.55 1012.77 1012.48 1012.41 1011.56 1010.77 1010.74 1010.21 1009.63 1009.03 1007.82 1006.23 1004.56 1002.06 1000.93 1000.43 1000.16 1000.11 1000.12 1000.30 1000.16 1000.39 1000.78 1001.46 1001.74 1002.20 1003.05 1003.92 1004.37 1005.19 1005.76 1006.50 1007.13 1007.73 1008.32 1008.86 1009.61 1010.16 1010.80 1011.32 1012.10 1012.57 1013.04
1017.92 1015.02 1012.94 1012.47 1011.53 1011.50 1010.31 1010.09 1009.17 1009.01 1008.39 1007.66 1005.30 1003.40 1001.79 1000.88 1000.26 999.68 999.65 999.69 999.76 999.77 999.96 1000.49 1001.32 1001.57 1002.12 1002.87 1003.32 1003.86 1004.69 1005.38 1006.27 1006.81 1007.51 1008.02 1008.48 1009.11 1009.58 1010.12 1010.78 1011.35 1012.03 1012.70
1019.05 1016.90 1013.51 1012.00 1011.79 1011.42 1010.98 1010.70 1009.12 1008.77 1008.38 1007.21 1005.63 1004.68 1003.17 1002.06 999.73 998.99 999.43 999.48 999.55 999.44 999.67 1000.31 1001.13 1001.90 1002.27 1002.81 1003.55 1004.42 1004.96 1005.51 1006.16 1006.73 1007.25 1007.72 1008.07 1008.66 1009.10 1009.87 1010.41 1011.02 1011.77 1012.40
1018.77 1018.22 1014.18 1013.35 1012.90 1012.64 1011.59 1011.21 1010.72 1009.70 1008.09 1007.55 1006.39 1005.19 1004.64 1003.30 1001.46 1000.24 999.67 999.23 999.42 999.02 999.68 1000.39 1001.20 1001.91 1002.56 1003.35 1004.07 1004.66 1005.44 1005.84 1006.45 1006.85 1007.39 1007.85 1008.15 1008.59 1009.14 1009.52 1010.26 1010.48 1011.64 1012.42
1019.00 1018.03 1016.05 1014.19 1013.11 1013.57 1013.37 1012.99 1012.29 1010.60 1008.52 1007.91 1007.45 1006.48 1005.69 1004.50 1002.88 1001.43 1000.88 1001.03 1000.47 1000.37 1000.97 1001.90 1002.71 1003.42 1004.39 1004.99 1005.64 1006.66 1007.26 1007.66 1007.91 1007.83 1008.23 1008.86 1009.44 1009.88 1010.22 1010.40 1011.03 1011.48 1012.37 1013.48
1019.35 1018.30 1016.90 1014.41 1013.96 1013.68 1014.30 1013.75 1012.45 1009.94 1009.92 1009.38 1008.81 1008.47 1007.52 1005.70 1004.02 1003.33 1003.05 1003.04 1002.83 1002.87 1003.38 1004.04 1004.71 1005.66 1006.42 1006.90 1007.88 1008.32 1008.80 1009.31 1009.78 1009.63 1009.98 1010.67 1011.44 1011.74 1012.25 1012.53 1013.20 1013.52 1013.83 1014.74
1019.67 1018.77 1018.20 1017.58 1016.81 1016.47 1015.97 1014.90 1013.98 1012.48 1012.16 1011.81 1011.88 1011.51 1009.63 1007.28 1005.85 1005.25 1005.15 1004.88 1004.76 1005.27 1005.64 1006.26 1007.15 1008.01 1008.51 1009.28 1009.79 1010.20 1010.51 1010.86 1010.94 1011.27 1011.91 1012.40 1012.79 1013.26 1014.17 1014.16 1013.88 1014.08 1015.37 1016.05
1019.62 1018.77 1018.08 1017.20 1016.66 1017.24 1017.42 1016.72 1016.17 1015.31 1015.12 1014.31 1014.10 1013.26 1012.84 1011.49 1009.21 1008.36 1008.03 1007.31 1007.00 1007.50 1007.86 1008.70 1009.41 1010.13 1010.69 1011.08 1011.46 1011.80 1011.98 1012.33 1012.74 1012.73 1013.55 1014.60 1014.84 1014.78 1015.82 1015.73 1015.78 1016.26 1016.26 1017.16
1019.69 1018.92 1018.02 1017.29 1016.98 1016.99 1017.87 1018.27 1018.18 1017.74 1017.36 1016.70 1016.21 1015.92 1016.04 1014.84 1012.43 1010.98 1011.10 1010.22 1010.30 1010.94 1011.56 1011.70 1011.90 1012.20 1012.73 1013.17 1013.11 1013.59 1013.96 1014.30 1014.46 1014.63 1015.34 1015.74 1016.07 1016.76 1017.18 1017.48 1016.81 1017.56 1018.23 1018.65
1019.91 1019.19 1018.41 1017.52 1016.82 1016.88 1018.32 1019.94 1019.81 1020.35 1019.87 1019.42 1018.54 1018.99 1018.24 1016.78 1015.63 1015.50 1014.75 1013.51 1014.13 1014.72 1014.67 1014.56 1014.64 1014.66 1015.59 1015.50 1015.78 1015.45 1016.02 1015.89 1016.11 1016.47 1017.26 1017.26 1017.15 1018.31 1018.58 1018.36 1018.96 1019.24 1019.69 1020.04
1020.24 1019.23 1018.82 1018.20 1017.06 1018.26 1020.88 1020.98 1020.88 1020.97 1021.27 1020.84 1020.94 1020.46 1019.58 1019.53 1019.00 1018.25 1018.11 1017.67 1017.44 1017.58 1017.45 1017.61 1017.49 1017.30 1017.69 1017.60 1017.61 1017.55 1017.73 1017.81 1018.19 1018.41 1018.86 1019.85 1019.51 1019.06 1019.70 1020.00 1020.44 1020.89 1020.70 1020.87
1020.02 1019.62 1019.36 1019.38 1019.51 1020.28 1020.13 1021.51 1022.32 1022.36 1023.00 1023.13 1022.89 1021.99 1021.05 1020.24 1019.50 1020.16 1021.56 1021.23 1021.16 1021.01 1020.69 1020.40 1020.55 1020.18 1019.81 1020.00 1020.06 1019.40 1019.72 1019.99 1020.20 1021.05 1021.40 1021.47 1021.02 1020.93 1021.20 1022.00 1022.27 1022.21 1021.87 1022.34
1020.19 1020.13 1020.37 1020.36 1021.43 1022.85 1023.89 1022.58 1022.12 1022.04 1023.68 1024.73 1024.67 1024.09 1023.43 1022.39 1020.71 1025.41 1024.93 1024.09 1023.40 1023.24 1023.06 1023.04 1022.72 1022.18 1021.92 1022.65 1022.44 1021.36 1022.14 1022.22 1022.74 1023.54 1023.43 1023.26 1022.94 1022.84 1023.35 1023.49 1023.69 1023.59 1023.43 1023.68
1022.05 1021.70 1022.31 1022.69 1023.17 1024.63 1025.19 1023.92 1022.49 1023.48 1028.38 1027.26 1026.75 1026.40 1026.14 1025.87 1026.63 1027.29 1026.74 1025.82 1025.64 1025.45 1025.13 1025.24 1024.85 1024.63 1025.20 1025.02 1024.57 1024.12 1024.41 1024.59 1025.40 1025.13 1024.86 1024.74 1024.76 1024.85 1025.10 1025.09 1024.99 1024.84 1025.22 1025.45
1024.72 1024.50 1024.52 1024.43 1025.14 1026.69 1026.33 1025.45 1026.68 1028.89 1028.67 1028.37 1028.02 1027.86 1027.81 1027.94 1028.00 1027.98 1027.71 1027.46 1027.35 1027.21 1027.16 1027.13 1026.77 1026.77 1026.96 1026.85 1026.50 1026.65 1026.40 1027.34 1027.15 1026.76 1026.50 1026.50 1026.48 1026.74 1026.70 1026.47 1026.62 1026.64 1026.62 1027.17
1025.68 1026.08 1026.10 1026.37 1027.75 1028.50 1028.86 1029.19 1029.38 1029.42 1029.35 1029.13 1028.85 1028.89 1028.89 1028.67 1028.86 1029.04 1028.98 1029.08 1029.30 1029.38 1029.47 1029.70 1029.39 1029.41 1029.81 1029.93 1029.43 1028.99 1029.27 1028.97 1028.65 1027.96 1028.01 1028.13 1028.28 1028.11 1028.03 1027.61 1027.66 1027.58 1028.27 1028.31
1026.15 1026.03 1026.30 1027.06 1028.05 1028.77 1029.27 1029.57 1029.81 1029.91 1029.98 1029.97 1029.74 1029.72 1029.76 1029.75 1030.14 1030.24 1030.33 1030.74 1030.99 1031.25 1031.34 1031.55 1031.47 1031.57 1031.77 1031.69 1031.38 1030.93 1030.95 1030.47 1029.96 1029.80 1029.69 1029.65 1029.62 1029.66 1029.36 1029.14 1029.18 1029.24 1029.34 1029.38
1026.57 1026.27 1026.57 1027.30 1027.90 1029.01 1029.57 1029.95 1030.22 1030.58 1030.71 1030.82 1030.91 1030.79 1030.84 1031.00 1031.35 1031.65 1032.04 1032.55 1032.87 1033.02 1033.22 1033.20 1033.18 1033.28 1033.55 1033.45 1032.97 1032.60 1032.57 1031.68 1030.82 1030.86 1031.08 1031.18 1031.45 1031.57 1031.46 1031.37 1030.85 1030.61 1030.57 1030.26
1026.59 1026.35 1026.69 1027.17 1027.71 1028.60 1029.67 1030.35 1030.63 1030.98 1031.34 1031.48 1031.70 1032.30 1032.67 1032.76 1033.16 1033.83 1034.33 1034.89 1035.03 1035.04 1035.09 1034.92 1035.14 1035.20 1035.32 1034.96 1034.77 1034.62 1034.13 1033.20 1032.85 1033.10 1033.52 1033.86 1033.63 1033.43 1033.42 1033.15 1032.71 1031.96 1031.43 1031.41
Wind_Speed
5 6 11 12 17 18 16 19 21 20 20 15 17 16 12 8 11 10 11 8 14 15 7 9 11 7 13 13 15 18 16 12 12 10 10 10 10 8 7 7 10 9 9 9
6 18 19 16 17 21 20 21 21 22 15 11 17 19 15 13 16 14 15 12 10 14 15 10 13 12 11 16 16 16 17 13 11 10 8 8 9 8 8 7 7 8 10 10
11 17 18 18 18 17 17 17 18 21 15 18 16 18 16 12 12 15 17 17 12 11 14 12 14 16 18 18 19 17 18 17 14 12 9 7 5 4 3 5 3 6 9 8
12 10 10 17 20 20 23 21 20 19 15 17 11 12 16 14 16 18 18 16 15 12 11 14 9 18 19 17 15 17 15 16 15 14 11 12 11 10 5 5 4 6 7 7
19 18 22 22 18 14 12 11 16 18 17 12 14 6 7 13 17 17 16 18 17 12 11 10 15 10 19 18 16 15 15 15 14 15 14 12 11 8 4 4 7 4 4 5
19 20 14 8 11 14 15 12 18 13 9 12 12 11 13 14 23 21 21 20 18 14 12 8 11 9 14 15 16 15 16 15 15 15 15 15 16 12 8 8 8 6 4 4
15 6 1 2 11 9 7 6 3 2 5 7 5 10 20 12 21 23 22 19 19 16 13 11 10 8 13 15 16 15 15 15 16 17 15 16 16 14 14 12 9 9 5 4
7 12 4 3 9 9 11 4 2 5 2 6 5 8 9 17 21 21 24 19 15 15 15 15 11 9 13 15 14 15 15 15 16 16 15 13 14 10 10 12 10 9 9 9
8 9 8 11 9 4 3 4 5 3 4 3 4 5 11 9 9 21 18 12 11 16 16 15 11 8 12 15 17 18 16 14 13 14 13 12 13 14 13 13 11 9 9 6
4 12 8 15 2 3 4 8 3 0 3 4 3 9 3 18 14 14 16 15 12 9 15 13 13 10 12 13 12 10 11 13 12 12 11 11 12 13 10 11 12 10 8 9
8 5 12 11 6 8 10 10 6 7 3 2 4 3 10 17 17 10 5 3 5 9 14 9 8 8 10 10 8 6 6 7 7 8 9 8 9 9 9 11 9 9 8 9
4 5 7 17 7 7 8 12 8 5 2 1 2 3 17 22 13 10 15 13 14 17 13 13 15 15 14 13 12 12 12 12 11 7 8 9 11 10 6 5 6 8 9 8
7 3 8 11 4 4 12 18 22 10 6 4 4 6 17 20 9 15 15 17 17 20 19 19 19 17 16 16 14 15 14 14 13 14 14 14 15 15 14 15 14 14 14 13
13 4 5 5 10 11 16 21 26 16 6 5 9 10 23 26 20 21 19 21 21 21 21 21 20 18 18 16 15 14 15 14 14 16 16 15 13 12 10 10 13 14 13 12
5 4 6 13 13 3 21 21 25 22 18 9 13 14 21 23 18 20 20 22 26 25 26 22 20 18 18 17 17 17 16 16 15 18 17 15 14 15 14 14 15 14 15 13
2 5 6 3 11 7 19 24 19 19 20 10 13 15 17 17 19 26 22 25 26 25 23 23 22 21 20 19 19 18 17 17 16 18 17 15 17 15 15 13 16 15 13 10
4 4 5 5 8 1 7 23 12 18 22 11 12 10 14 22 25 24 22 25 25 23 21 23 20 22 18 17 15 19 16 17 18 18 14 15 17 13 13 13 13 12 11 10
7 8 1 5 5 8 5 17 9 7 25 25 18 17 10 13 19 25 24 23 24 22 23 20 18 20 17 17 17 19 19 19 18 19 17 13 12 15 13 13 12 11 10 13
5 5 5 4 4 1 14 21 14 8 15 25 21 20 16 6 15 27 24 21 19 19 17 17 16 18 21 19 16 19 20 19 20 18 16 14 14 15 15 14 13 11 12 13
6 4 5 5 6 9 14 24 21 8 16 24 20 19 18 17 17 9 16 15 19 19 18 16 17 19 22 18 16 20 19 19 19 15 14 14 15 16 15 14 13 12 12 13
9 6 8 8 7 5 15 25 13 11 5 16 14 13 15 12 8 4 9 18 18 17 19 17 19 19 17 15 14 20 18 19 14 14 15 16 15 16 14 14 13 14 13 13
5 6 5 5 7 7 19 10 10 4 4 7 10 11 11 9 10 12 15 17 18 19 19 18 17 18 18 18 16 18 19 13 12 13 15 15 16 12 11 14 13 13 12 12
5 4 2 5 3 3 3 3 4 4 3 6 7 7 9 12 14 15 15 16 17 17 16 15 15 17 16 15 14 16 14 12 12 15 16 14 14 13 13 14 14 11 12 11
2 1 2 3 4 3 1 2 2 2 4 7 9 9 10 13 13 14 14 14 14 15 15 13 15 17 16 15 15 15 13 11 12 15 15 14 14 14 13 11 11 10 10 9
3 3 1 2 3 5 3 4 3 5 5 8 10 10 11 12 13 12 13 14 13 13 13 12 14 15 16 14 16 15 14 11 15 15 14 14 12 12 11 11 10 9 11 13
2 4 3 4 4 2 3 3 5 7 7 7 8 10 12 12 14 13 13 11 11 11 10 13 13 14 13 14 15 14 13 13 12 13 10 8 7 7 7 7 7 18 17 20
Wind_Direction
256 239 236 235 228 240 260 265 268 269 270 273 273 277 280 287 291 291 281 270 250 240 230 205 166 203 194 182 179 182 185 168 172 172 166 163 175 173 185 185 179 179 160 157
277 255 264 264 257 256 269 277 271 276 272 254 269 271 267 262 268 263 275 278 275 256 224 199 184 173 216 185 188 186 184 170 177 169 174 174 174 177 182 187 184 160 158 159
269 269 306 285 285 290 277 272 273 273 303 278 260 273 261 249 251 271 264 264 248 262 237 207 196 182 196 192 186 185 185 181 176 168 158 158 136 119 133 181 149 161 160 168
271 273 287 301 285 273 271 268 265 271 275 270 200 259 248 241 249 253 258 258 263 249 256 219 211 187 182 199 188 191 182 182 182 170 174 175 178 182 186 166 152 162 157 160
261 291 292 287 287 303 275 280 261 262 259 265 243 255 260 235 244 241 241 250 246 240 239 243 219 203 185 180 183 184 182 179 181 177 181 186 188 186 154 141 147 135 134 163
281 298 289 288 307 261 262 277 255 243 243 244 240 208 243 219 224 236 241 237 250 227 225 228 227 164 183 189 183 185 175 181 181 181 184 184 186 178 163 168 167 172 165 172
328 293 204 346 306 287 233 304 305 218 205 232 170 203 242 235 227 228 231 235 237 224 211 212 233 186 178 183 182 173 172 177 182 191 186 186 184 180 178 179 181 177 165 183
343 326 24 278 293 276 290 223 261 244 234 268 260 244 248 230 228 224 233 229 235 224 211 213 221 200 165 174 177 177 180 181 182 186 193 185 185 189 188 186 184 198 194 195
324 279 315 299 311 294 11 173 273 281 218 250 235 299 325 342 283 227 235 219 220 222 212 207 204 177 173 177 178 176 177 183 182 183 195 202 187 190 196 191 188 189 190 182
273 288 290 328 353 268 276 324 315 319 288 281 304 303 283 328 311 211 224 230 242 232 208 192 195 165 171 170 166 171 171 176 181 184 193 208 194 199 192 183 187 182 172 157
291 226 290 329 30 352 4 2 337 289 221 248 308 267 340 333 343 355 57 219 257 208 178 162 153 145 141 141 150 137 153 159 170 185 203 196 200 200 179 183 182 173 146 149
304 290 285 290 305 238 356 342 336 271 237 174 252 303 346 341 326 41 50 39 36 57 69 71 75 76 63 62 58 57 48 46 18 31 54 42 44 32 31 70 86 92 87 73
337 308 308 337 39 51 2 345 344 312 195 318 22 353 338 338 33 55 61 57 59 63 68 66 59 58 62 59 58 58 58 57 50 52 57 56 51 56 57 59 52 56 70 73
346 260 243 262 284 313 352 358 8 11 30 329 24 349 344 352 29 49 52 58 61 62 65 68 63 61 60 61 61 60 60 59 60 60 56 54 56 62 54 67 81 89 79 73
311 286 282 291 263 154 30 8 15 19 2 31 9 15 353 352 30 49 59 64 60 59 61 64 66 65 64 63 62 63 58 60 60 68 65 59 56 60 55 60 61 58 63 61
335 278 321 307 116 72 41 14 22 17 6 5 16 32 4 1 27 45 45 59 58 54 57 58 62 65 62 62 59 61 61 60 63 65 68 68 59 58 61 58 61 58 62 63
293 307 328 308 323 353 26 9 10 25 26 346 16 3 10 22 37 33 33 46 56 55 55 51 52 58 57 59 55 58 59 62 56 59 55 59 67 62 56 61 64 61 62 61
291 309 276 287 339 40 3 14 357 5 25 15 12 360 27 47 52 43 30 41 43 41 43 41 43 48 43 52 57 62 52 53 53 51 46 40 61 62 57 55 52 54 57 58
265 310 322 14 22 301 8 355 343 352 28 12 5 5 5 40 60 39 18 33 42 41 40 40 43 49 44 37 43 59 53 52 50 44 44 42 47 56 56 53 51 51 63 67
356 33 47 352 71 22 342 337 330 271 39 359 5 15 15 10 59 29 4 29 43 47 43 40 40 49 45 31 36 61 55 52 49 44 48 48 49 54 54 54 51 51 56 61
335 354 43 5 67 37 347 335 342 61 308 340 2 18 32 43 45 21 26 43 44 46 45 40 44 50 40 37 43 52 52 48 43 46 50 49 47 52 50 52 48 51 50 51
352 345 360 12 54 18 7 352 55 324 332 335 9 23 44 52 60 54 49 47 43 43 38 39 46 45 36 30 39 48 47 35 45 53 53 49 50 48 46 55 52 51 50 48
35 11 17 44 76 54 345 40 2 15 349 355 32 38 54 66 61 56 57 53 50 49 49 44 48 51 41 33 36 47 32 36 44 53 51 48 49 48 47 51 49 47 43 43
322 335 85 166 166 141 85 171 35 346 52 36 49 61 64 70 62 61 58 53 50 44 42 42 48 50 44 33 34 38 26 38 50 54 49 46 45 41 38 48 46 48 44 41
241 355 22 72 111 139 122 51 41 60 54 68 51 54 69 75 62 63 64 57 51 49 45 44 49 48 40 31 33 27 19 27 49 47 41 40 39 37 34 33 39 47 41 41
209 190 167 206 167 146 101 85 65 76 60 57 87 78 60 76 81 76 69 61 58 54 48 51 48 48 36 35 33 21 15 26 46 52 44 40 45 41 38 30 25 30 43 40